Location: Northam
(31.6525°S, 116.6655°E)
Time: 22:57:41
(UTC+08:00)

Envisat - Visible Passes

Search period start: 25 September 2022 00:00
Search period end: 05 October 2022 00:00
Orbit: 764 x 765 km, 98.2° (Epoch: 24 September)

Date Brightness Start Highest point End Pass type
(mag) Time Alt. Az. Time Alt. Az. Time Alt. Az.
25 Sep 6.0 02:25:02 10° ESE 02:25:47 10° ESE 02:26:33 10° SE visible
25 Sep 2.8 04:03:57 74° WNW 04:04:05 74° WNW 04:09:13 10° SSW visible
26 Sep 4.0 03:26:06 39° ENE 03:27:14 45° ESE 03:32:06 10° S visible
26 Sep 4.4 05:06:15 16° W 05:06:22 16° W 05:09:29 10° SW visible
27 Sep 5.4 02:48:13 14° E 02:50:34 19° ESE 02:54:08 10° SSE visible
27 Sep 3.4 04:28:21 36° WNW 04:29:13 39° W 04:34:01 10° SSW visible
28 Sep 2.9 03:50:28 42° NNE 03:52:15 84° ESE 03:57:24 10° S visible
29 Sep 4.5 03:12:34 19° ENE 03:15:27 34° ESE 03:20:03 10° S visible
29 Sep 4.1 04:52:43 18° WNW 04:54:27 21° W 04:58:19 10° SW visible
30 Sep 5.7 02:36:06 10° E 02:38:51 15° ESE 02:41:38 10° SSE visible
30 Sep 3.1 04:14:46 27° NNW 04:17:20 52° W 04:22:21 10° SSW visible
01 Oct 3.3 03:36:49 19° NNE 03:40:25 63° ESE 03:45:30 10° S visible
01 Oct 4.8 05:18:24 10° WNW 05:19:45 11° W 05:21:06 10° WSW visible
02 Oct 5.0 02:59:30 10° NE 03:03:41 26° ESE 03:07:55 10° SSE visible
02 Oct 3.8 04:38:58 14° NNW 04:42:31 28° W 04:46:55 10° SW visible
03 Oct 6.0 02:25:48 10° E 02:27:10 11° ESE 02:28:32 10° SE visible
03 Oct 2.9 04:00:55 13° N 04:05:29 70° WNW 04:10:37 10° SSW visible
04 Oct 3.9 03:23:45 10° NNE 03:28:37 48° ESE 03:33:32 10° S visible
04 Oct 4.5 05:04:55 10° NW 05:07:48 15° W 05:10:42 10° WSW visible
